Flag for Mexico Weather past 2 weeks in Cozumel, Quintana Roo, Mexico

Now
72 °F

Mostly cloudy.


Feels Like: 71 °F
Forecast: 76 / 81 °F
Wind: 8 mph from East

Location: Cozumel Civ / Mil

Current Time: Mar 29, 2015 at 4:26:13 AM

Latest Report: Mar 29, 2015 at 4:01 AM


Visibility: 7 mi

Pressure: 30.12 "Hg

Humidity: 83%

Dew point: 66 °F

Location of CozumelLocation

Historic Weather in Cozumel — Graph

°F

Cozumel temperature yesterday

Maximum temperature yesterday: 75 °F (at 9:47 AM)
Minimum temperature yesterday: 70 °F (at 5:45 AM)
Average temperature yesterday: 73 °F

Past Weeks' High & Low Weather Summary

 TemperatureHumidityPressure
High84 °F (Mar 18, 3:46 PM)100% (Mar 14, 2:51 AM)30.17 "Hg (Mar 14, 2:51 AM)
Low61 °F (Mar 22, 6:52 AM)55% (Mar 18, 3:46 PM)29.84 "Hg (Mar 20, 3:50 AM)
Average73 °F87%30.03 "Hg
* Reported Mar 14 2:51 AM — Mar 29 2:49 AM, Cozumel, Weather by CustomWeather, © 2015

Note: Actual official high and low records may vary slightly from our data, if they occured in-between our weather recording intervals... More about our weather records

Advertising

Cozumel weather history for previous 24 hours

 ConditionsComfort  
Time TempWeatherWind HumidityBarometerVisibility
2:49 AM
Sun, Mar 29
72 °FMostly cloudy.8 mph83%30.11 "Hg7 mi
1:45 AM72 °FMostly cloudy.12 mph83%30.12 "Hg7 mi
12:43 AM72 °FMostly cloudy.7 mph78%30.12 "Hg7 mi
11:41 PM
Sat, Mar 28
72 °FMostly cloudy.9 mph78%30.17 "Hg7 mi
10:44 PM72 °FMostly cloudy.8 mph78%30.17 "Hg7 mi
9:40 PM72 °FPartly cloudy.12 mph73%30.17 "Hg7 mi
8:46 PM72 °FPartly cloudy.12 mph73%30.15 "Hg7 mi
6:53 PM73 °FBroken clouds.10 mph69%30.07 "Hg7 mi
5:45 PM73 °FBroken clouds.14 mph74%30.10 "Hg8 mi
4:42 PM75 °FBroken clouds.16 mph69%30.09 "Hg8 mi
3:46 PM75 °FBroken clouds.17 mph69%30.11 "Hg8 mi
1:43 PM75 °FBroken clouds.15 mph69%30.12 "Hg8 mi
12:46 PM75 °FCloudy.14 mph69%30.12 "Hg8 mi
11:41 AM75 °FBroken clouds.13 mph74%30.15 "Hg8 mi
10:45 AM75 °FBroken clouds.13 mph74%30.12 "Hg8 mi
9:47 AM75 °FBroken clouds.15 mph74%30.14 "Hg8 mi
8:48 AM73 °FCloudy.8 mph89%30.10 "Hg7 mi
7:54 AM72 °FMostly cloudy.9 mph88%30.08 "Hg7 mi
6:49 AM72 °FMostly cloudy.13 mph94%30.04 "Hg7 mi
5:45 AM70 °FPartly cloudy.9 mph94%30.03 "Hg7 mi
5:10 AM72 °FPassing clouds.18 mph100%30.03 "Hg7 mi
Weather by CustomWeather, © 2015

See weather overviewHow to use our weather pages